Portada
METAR-TAF:

METAR-TAF

Aeroports :

Sabzevar, Iran

latitud: 36-13N, longitud: 057-40E, altitud: 941 m

Observació

L'informe es va fer fa 2 hores i 36 minuts, a les 15:00 UTC
Vent 10 kt del Est/Nord-Est
Temperatura 24°C
Humitat 20%
Pressió 1016 hPa
Visibilitat 10 km o més
Escasses núvols a una alçada de 3000 ft, Cumulonimbus.
Núvols disperses a una alçada de 3500 ft

METAR: OIMS 131500Z 06010KT 9999 FEW030CB SCT035 24/00 Q1016

Hora: 22:06 (17:36 UTC)


TAF: manca

Observacions i pronòstics meteorològics de més de 4000 aeroports (METAR i TAF).

Les estacions disponibles són els punts grocs i vermells al mapa.

Posi el ratolí al punt desitjat per veure el nom de l'estació.

Feu clic per veure les observacions i els pronòstics meteorològics.

Per canviar el mapa: feu clic els botons verds amb una creu de color negre per apropar; al botó verd amb un guió per allunyar la imatge; o en les fletxes verdes per a mapes adjacents.


METAR-TAF: